CAPE
15 49 333 602 917 1440 1945 2491 2593 2757 2783 2235 2292 2439 2267 1893 2175 3298 2881 1779 2016 2085 1595 1142 1197 817 457 497 492 377 435 396 113 1089 434 58 8 7 10 5 6 3 7
21 53 50 195 321 407 647 1170 1494 2486 2606 2659 2280 2285 2258 2103 2430 2208 1983 1611 1848 2008 2032 1513 939 919 1214 852 536 640 411 707 297 428 377 8 8 9 7 5 5 4 8
1 13 47 102 85 149 224 202 579 1101 2102 2391 2284 2145 2157 2233 2209 2261 2205 1779 1768 2116 2491 2036 1275 1232 1443 757 774 599 468 738 764 140 742 30 8 8 9 7 6 7 5
0 0 6 21 29 110 110 142 209 175 491 957 1740 2059 1946 2025 2033 2270 2336 2640 2384 2350 2199 2667 1890 1117 1075 1270 889 622 439 481 146 7 300 105 6 11 7 7 7 9 8
0 1 1 6 11 16 16 81 127 154 131 118 657 749 1059 1109 1097 1676 1954 2033 1996 1284 596 749 1247 699 330 971 184 913 1043 70 0 0 0 110 1 4 5 5 6 7 10
0 1 1 5 7 14 12 8 2 18 119 138 51 214 496 736 7 3 20 1505 1043 443 61 11 59 14 6 27 12 299 507 553 238 0 19 14 40 60 6 6 6 7 5
0 0 0 1 5 8 8 7 19 11 2 23 112 106 56 181 0 0 0 105 779 1170 273 38 44 58 16 61 7 0 0 0 0 292 104 90 29 59 13 11 7 6 3
0 0 0 0 0 3 16 23 20 33 73 25 9 130 203 210 0 0 0 5 386 571 520 119 5 0 0 13 227 8 0 3 0 22 299 207 159 13 161 10 16 6 5
11 5 6 10 7 2 0 5 32 52 45 56 95 65 54 279 0 0 0 8 103 72 173 0 0 0 0 0 163 99 0 10 0 0 0 0 0 0 10 4 3 2 8
43 36 31 30 31 24 13 9 10 21 76 59 33 206 141 63 15 0 0 16 51 172 108 74 0 0 0 0 490 857 314 342 285 37 18 1 0 0 0 1 9 4 6
41 29 41 54 54 41 36 27 19 23 111 146 89 88 202 202 245 1 0 48 46 53 21 8 1 0 0 0 34 1222 802 850 302 567 143 88 70 51 2 4 11 10 15
23 25 46 43 36 40 53 47 44 37 44 250 267 186 124 131 41 0 1 1 9 55 15 36 32 0 0 0 0 12 0 36 692 589 110 79 59 68 42 11 10 16 22
16 17 16 20 12 14 51 29 29 36 43 49 100 120 86 88 4 0 0 1 0 44 106 3 0 1 0 0 0 0 0 114 547 578 157 50 65 83 53 35 14 9 9
26 31 20 20 29 34 27 45 40 35 46 41 62 63 90 81 25 0 0 0 0 0 0 0 0 0 0 0 0 0 0 43 303 278 134 81 125 138 63 50 9 10 6
30 29 44 46 48 43 42 39 44 41 28 23 44 55 60 76 55 4 0 0 0 0 0 0 0 0 0 0 0 0 0 26 170 214 228 258 99 94 61 86 15 8 7
34 43 40 50 51 40 32 22 11 0 0 0 0 0 0 0 0 0 0 0 0 0 0 0 0 0 0 0 0 0 0 7 59 85 88 100 68 90 95 169 81 6 10
37 28 37 45 39 40 36 38 29 17 0 0 0 0 0 0 0 0 0 0 0 0 4 1 0 53 38 30 32 6 0 14 10 34 29 65 74 80 58 99 133 51 11
28 26 45 42 44 49 44 47 24 34 26 32 4 0 0 0 0 0 0 0 3 2 2 4 10 8 1 1 5 0 0 1 0 0 0 10 15 39 58 89 87 86 19
18 18 26 22 20 29 38 37 35 37 32 28 33 10 3 0 0 0 0 2 25 18 13 9 5 11 12 10 9 10 2 0 0 0 0 2 0 7 24 37 59 32 38
20 16 12 24 31 28 19 23 29 33 36 30 36 28 30 14 35 33 23 30 31 28 22 16 18 10 20 18 21 15 13 12 4 3 6 4 0 1 14 23 44 50 81
9 8 1 20 24 27 25 30 32 26 26 27 17 16 11 20 18 16 30 38 38 33 27 33 21 22 24 27 17 18 16 29 27 17 11 17 11 1 9 16 29 59 82
7 6 8 18 16 14 11 11 11 27 23 19 17 18 0 17 27 39 43 26 19 22 39 31 38 27 22 14 20 24 19 23 33 24 18 19 12 16 12 27 25 51 87
8 8 9 8 14 8 14 5 4 3 2 7 13 16 16 14 19 23 22 34 35 24 32 40 42 36 35 31 34 33 22 20 33 21 24 26 15 30 33 54 40 31 102
10 11 11 11 11 16 20 18 3 4 7 5 7 9 14 12 16 13 18 30 35 44 46 33 41 45 47 46 48 46 42 33 36 48 32 47 35 18 48 49 75 40 93
7 8 10 10 10 12 13 21 20 19 16 13 7 8 8 12 9 15 18 13 17 15 30 21 14 15 18 31 28 26 10 0 16 27 71 72 42 35 52 55 44 265 111
7 7 8 8 9 9 11 23 25 24 20 16 10 13 14 8 6 6 8 9 10 13 12 10 12 15 14 12 12 10 0 0 0 0 30 77 57 99 43 30 58 295 20
CIN
-322 -303 -216 -148 -108 -25 -13 -0 -0 -0 -0 -23 -21 -24 -21 -33 -23 -0 -0 -3 -2 -0 -0 -12 -21 -17 -15 -13 -10 -6 -2 -2 -49 -0 -14 -113 -0 -0 -0 -0 -0 -0 -0
-276 -261 -284 -220 -193 -210 -173 -71 -69 -0 -2 -3 -6 -18 -8 -12 -10 -18 -24 -9 -8 -0 -0 -7 -21 -19 -23 -17 -16 -12 -5 -0 -7 -2 -6 -5 -0 -0 -0 -0 -0 -0 -0
-0 -0 -167 -182 -209 -205 -202 -256 -183 -78 -4 -1 -1 -8 -6 -0 -0 -7 -18 -11 -0 -0 -0 -2 -22 -24 -29 -20 -24 -16 -16 -6 -0 -32 -1 -69 -0 -0 -0 -0 -0 -0 -0
-0 -0 -0 -0 -107 -133 -149 -159 -178 -249 -167 -93 -11 -7 -10 -5 -3 -0 -0 -0 -0 -1 -0 -0 -12 -33 -39 -27 -35 -30 -18 -6 -33 -70 -12 -77 -0 -0 -0 -0 -0 -0 -0
-0 -0 -0 -0 -0 -0 -32 -141 -123 -121 -164 -200 -74 -69 -66 -74 -84 -13 -0 -0 -17 -31 -41 -27 -10 -52 -90 -65 -43 -24 -4 -39 -0 -0 -0 -63 -0 -0 -0 -0 -0 -0 -0
-0 -0 -0 -0 -0 -0 -0 -0 -0 -66 -74 -91 -137 -99 -39 -41 -180 -329 -189 -10 -144 -112 -186 -71 -55 -156 -175 -139 -57 -69 -48 -14 -4 -0 -0 -0 -131 -128 -0 -0 -0 -0 -0
-0 -0 -0 -0 -0 -0 -0 -0 -0 -0 -0 -66 -38 -39 -89 -36 -0 -0 -0 -213 -64 -0 -28 -179 -117 -58 -138 -18 -18 -0 -0 -0 -0 -11 -39 -30 -8 -111 -26 -0 -0 -0 -0
-0 -0 -0 -0 -0 -0 -0 -0 -0 -0 -0 -0 -11 -9 -0 -1 -0 -0 -0 -70 -33 -6 -28 -123 -187 -0 -57 -33 -34 -109 -0 -44 -0 -26 -1 -2 -19 -35 -52 -0 -0 -0 -0
-0 -0 -0 -0 -0 -0 -0 -0 -0 -0 -0 -0 -0 -1 -4 -1 -0 -0 -0 -7 -20 -3 -16 -22 -0 -0 -0 -0 -19 -62 -0 -55 -0 -0 -0 -0 -0 -0 -16 -0 -0 -0 -0
-0 -0 -0 -0 -0 -0 -0 -0 -0 -0 -1 -0 -0 -0 -1 -19 -38 -0 -0 -12 -38 -0 -5 -30 -0 -0 -0 -0 -11 -0 -4 -0 -1 -31 -47 -3 -0 -0 -0 -0 -0 -0 -0
-0 -0 -0 -0 -0 -0 -0 -0 -0 -0 -0 -4 -3 -0 -0 -1 -1 -0 -0 -25 -17 -5 -5 -11 -0 -0 -0 -0 -36 -0 -0 -0 -2 -0 -25 -35 -31 -58 -0 -0 -0 -0 -0
-0 -0 -0 -0 -0 -0 -0 -0 -0 -0 -0 -0 -0 -0 -0 -0 -9 -0 -0 -3 -65 -18 -42 -2 -5 -0 -0 -0 -0 -6 -0 -19 -0 -1 -56 -62 -0 -2 -0 -0 -0 -0 -0
-0 -0 -0 -0 -0 -0 -0 -0 -0 -0 -0 -0 -29 -9 -12 -12 -14 -0 -0 -0 -0 -13 -2 -6 -0 -0 -0 -0 -0 -0 -0 -11 -0 -0 -13 -0 -0 -0 -1 -0 -0 -0 -0
-0 -0 -0 -0 -0 -1 -0 -0 -0 -0 -0 -0 -0 -62 -24 -41 -0 -0 -0 -0 -0 -0 -0 -0 -0 -0 -0 -0 -0 -0 -11 -7 -0 -0 -18 -92 -41 -27 -0 -0 -3 -0 -0
-0 -0 -0 -0 -0 -0 -0 -1 -0 -0 -0 -0 -0 -0 -31 -52 -23 -13 -0 -0 -0 -0 -0 -0 -0 -0 -0 -0 -0 -0 -0 -6 -2 -0 -12 -6 -71 -0 -0 -72 -0 -0 -0
-0 -0 -0 -0 -0 -0 -0 -0 -1 -1 -0 -0 -0 -0 -5 -0 -0 -0 -0 -0 -0 -0 -0 -0 -0 -0 -0 -0 -0 -0 -0 -8 -0 -2 -0 -1 -1 -0 -0 -123 -37 -0 -0
-0 -0 -0 -0 -0 -0 -0 -0 -0 -0 -0 -0 -0 -0 -0 -0 -0 -0 -0 -0 -0 -0 -0 -0 -0 -0 -0 -0 -0 -0 -0 -0 -4 -0 -0 -0 -0 -1 -15 -4 -135 -0 -1
-0 -0 -0 -0 -0 -0 -0 -0 -0 -0 -0 -0 -0 -0 -0 -0 -0 -0 -0 -0 -0 -0 -0 -0 -0 -0 -0 -0 -0 -0 -0 -0 -0 -0 -0 -0 -2 -0 -0 -0 -0 -175 -3
-0 -0 -0 -0 -0 -0 -0 -0 -0 -0 -0 -0 -0 -3 -2 -0 -0 -0 -0 -0 -0 -0 -0 -0 -0 -0 -0 -0 -0 -0 -0 -0 -0 -0 -0 -0 -0 -0 -0 -0 -0 -24 -7
-0 -0 -0 -0 -0 -0 -0 -0 -0 -0 -0 -0 -0 -0 -0 -3 -0 -0 -0 -0 -0 -0 -0 -0 -0 -0 -0 -0 -0 -0 -0 -0 -0 -0 -0 -0 -0 -0 -0 -0 -0 -0 -1
-0 -0 -0 -0 -0 -0 -0 -0 -0 -0 -0 -0 -0 -0 -1 -0 -0 -1 -0 -0 -0 -0 -0 -0 -0 -0 -0 -0 -0 -0 -0 -0 -0 -0 -0 -0 -0 -0 -0 -0 -0 -0 -0
-0 -0 -0 -0 -0 -0 -0 -0 -0 -0 -0 -0 -0 -0 -0 -0 -0 -0 -0 -0 -0 -0 -0 -0 -0 -0 -0 -0 -0 -0 -0 -0 -0 -0 -0 -0 -0 -0 -0 -0 -0 -0 -32
-0 -0 -0 -0 -0 -0 -0 -0 -0 -0 -0 -0 -0 -0 -0 -0 -0 -0 -0 -0 -0 -0 -0 -0 -0 -0 -0 -0 -0 -0 -0 -0 -0 -0 -0 -0 -1 -0 -0 -15 -0 -0 -17
-0 -0 -0 -0 -0 -0 -0 -0 -0 -0 -0 -0 -0 -0 -0 -0 -0 -0 -0 -0 -0 -0 -0 -0 -0 -0 -0 -0 -0 -0 -0 -0 -0 -0 -0 -0 -0 -8 -0 -4 -18 -4 -1
-0 -0 -0 -0 -0 -0 -0 -0 -0 -0 -0 -0 -0 -0 -0 -0 -0 -0 -0 -0 -0 -0 -0 -0 -0 -0 -3 -0 -0 -0 -0 -0 -1 -2 -0 -0 -2 -2 -0 -13 -24 -1 -17
-0 -0 -0 -0 -0 -0 -0 -0 -0 -0 -0 -0 -0 -0 -0 -0 -0 -0 -0 -0 -0 -0 -0 -0 -0 -0 -0 -0 -0 -1 -0 -0 -0 -0 -4 -0 -1 -22 -0 -2 -31 -2 -44
Wind_Speed
11 11 11 11 12 11 11 10 12 12 12 14 14 15 16 16 16 15 14 15 16 14 12 12 13 9 7 7 6 5 4 4 4 9 4 5 5 7 8 9 8 7 7
11 8 9 10 10 10 11 10 12 11 13 15 15 15 16 17 16 17 18 15 18 17 16 15 15 11 11 8 7 6 5 3 6 3 4 3 4 6 7 7 6 5 6
11 11 10 8 8 8 9 9 10 9 11 12 13 15 16 16 17 18 19 19 18 19 18 18 17 15 13 9 9 7 6 5 6 6 6 4 3 5 4 5 5 6 4
12 11 10 10 9 8 7 7 8 8 8 9 9 11 11 13 15 16 17 17 15 14 17 17 16 16 14 12 11 9 7 6 5 5 6 5 4 4 4 4 4 3 5
12 12 11 11 10 9 9 10 8 7 6 6 7 5 8 7 7 10 12 11 10 8 10 10 2 9 13 12 10 11 10 9 7 6 5 6 6 4 6 5 4 5 4
14 13 12 12 11 10 10 9 10 11 10 7 8 6 6 5 1 7 9 15 10 11 6 9 11 13 11 8 10 12 12 11 8 6 5 3 1 5 6 6 6 4 3
14 15 15 14 13 12 11 11 10 10 10 10 12 11 9 5 3 7 12 11 14 15 14 14 13 8 13 13 8 10 11 6 1 7 5 4 2 4 5 7 8 6 4
15 15 14 15 16 15 14 13 12 11 10 9 12 12 13 11 6 4 6 11 11 12 12 17 21 20 14 22 16 16 15 12 9 7 7 5 5 2 7 7 6 5 6
17 17 16 15 15 15 16 16 15 13 12 13 12 12 14 14 13 10 7 9 10 10 13 14 17 21 27 28 19 17 17 13 12 6 9 8 6 4 3 7 7 7 4
19 18 17 16 16 17 17 17 16 16 16 13 15 12 14 12 9 14 12 7 8 10 8 13 21 22 23 22 18 17 16 15 13 13 10 6 6 5 6 9 7 7 4
14 16 19 19 18 18 18 16 16 17 16 15 15 13 14 15 14 16 14 12 10 6 5 3 7 8 18 21 16 15 15 13 12 12 11 9 9 7 8 10 8 7 6
17 18 16 17 15 15 18 15 16 17 18 14 15 13 12 9 10 11 13 14 9 7 5 3 4 6 5 11 14 7 6 8 10 11 10 9 8 9 8 8 9 7 5
16 16 16 15 13 13 14 14 11 15 15 15 12 15 13 10 6 8 9 9 5 6 4 4 5 8 10 8 7 6 6 9 11 11 10 8 8 7 6 7 9 6 7
18 18 14 14 13 13 12 12 13 11 13 15 14 13 13 10 10 6 8 6 5 5 2 3 6 4 2 8 6 7 9 11 12 11 10 9 6 6 8 7 6 7 6
16 16 15 12 13 12 12 11 12 15 12 13 14 12 12 13 10 13 9 6 7 6 6 5 3 4 3 5 7 4 8 7 11 11 8 7 7 7 9 10 9 6 6
13 11 12 10 10 10 10 10 16 19 18 15 14 12 14 12 6 10 2 7 10 4 3 6 8 9 10 10 9 9 9 9 12 11 11 8 8 8 10 8 10 7 7
13 12 10 12 11 11 10 10 11 10 19 21 20 19 17 18 17 7 7 10 10 11 9 14 13 12 11 11 11 12 12 13 13 10 11 12 13 10 8 10 12 11 6
13 18 12 10 10 10 11 11 9 9 10 10 15 20 19 19 18 17 11 7 12 13 14 16 16 15 13 15 12 12 11 12 12 12 14 12 13 13 13 13 12 13 11
11 9 9 9 9 11 10 10 10 10 11 11 10 11 15 18 16 17 15 13 14 14 13 15 14 14 15 13 13 13 13 13 13 13 13 12 14 14 14 15 14 12 14
10 15 14 10 9 9 8 9 10 11 12 11 10 11 10 8 12 15 14 13 13 13 11 14 14 14 14 13 13 13 13 13 13 13 13 14 13 14 15 16 15 13 13
9 9 11 8 8 8 7 8 9 10 10 10 12 11 8 11 11 11 11 12 13 13 13 13 16 13 11 10 11 11 12 12 13 13 13 14 14 14 15 15 15 15 12
9 8 8 7 7 7 8 8 9 9 11 11 11 11 9 10 11 11 12 12 12 13 12 15 14 13 11 11 12 13 14 15 15 16 13 13 14 14 14 16 15 15 10
9 9 9 8 7 8 7 7 8 9 10 11 11 10 10 11 12 13 13 12 12 12 11 12 13 13 13 12 13 15 16 16 15 14 13 13 11 13 14 14 16 16 14
10 10 10 9 7 7 6 7 7 7 9 10 9 9 10 10 11 13 12 11 12 12 12 12 12 17 16 15 13 13 14 16 16 14 17 11 13 10 14 15 15 14 12
10 10 10 10 9 9 9 7 7 7 7 6 7 8 9 11 11 11 11 11 11 10 11 12 12 16 20 20 18 20 17 13 15 11 11 16 16 17 16 13 13 10 15
11 11 10 9 9 9 9 8 8 8 7 7 7 7 7 9 10 10 10 11 11 11 13 12 12 18 19 17 18 20 9 8 11 7 11 12 13 15 14 17 22 13 17
Wind_Direction
6 7 9 8 2 352 331 269 243 242 239 224 205 208 208 206 202 197 207 200 204 206 210 195 203 207 216 210 218 230 231 253 264 91 108 105 77 95 101 108 120 117 118
353 356 13 11 13 9 1 344 339 271 235 235 225 211 216 213 206 208 212 206 202 205 203 203 204 198 212 216 212 224 227 199 276 215 132 109 86 103 116 117 125 130 127
342 343 351 344 349 359 353 354 350 326 296 254 242 232 221 222 215 214 213 217 216 211 203 203 203 196 197 196 217 192 203 219 211 265 123 135 120 150 125 122 136 134 131
333 334 337 337 336 328 323 327 342 350 345 333 289 253 245 229 231 224 224 224 231 229 229 203 197 193 195 193 198 206 212 207 205 228 156 155 160 154 161 147 153 167 153
320 320 322 319 317 321 328 319 309 309 316 322 299 254 250 259 261 239 238 235 219 264 314 240 250 212 191 187 194 197 180 211 195 212 211 155 169 172 204 174 167 159 165
305 304 306 308 312 310 308 304 307 306 294 287 283 284 266 237 349 269 254 229 197 162 185 38 347 327 320 218 223 174 176 203 217 225 225 260 140 182 173 180 152 166 198
292 292 294 293 292 292 295 300 294 295 298 289 277 271 277 253 113 265 283 278 246 223 199 184 190 216 266 254 212 174 188 205 320 210 256 257 254 194 172 191 192 195 177
284 284 286 288 290 291 290 288 289 285 276 277 279 269 257 253 152 183 258 257 254 246 217 198 194 199 211 236 201 194 201 198 202 213 218 227 210 208 180 196 193 140 95
279 280 284 286 288 290 289 286 284 279 274 277 261 263 274 261 171 171 166 235 237 248 211 202 192 202 201 215 195 195 201 201 181 205 87 93 75 25 205 151 164 176 163
277 277 280 282 282 282 282 281 280 275 267 267 270 272 244 247 232 183 190 209 235 240 237 207 202 191 202 194 194 187 199 199 195 194 201 182 177 189 195 207 171 212 163
292 297 291 284 280 279 276 275 274 271 270 268 264 265 271 264 240 195 193 226 240 221 226 200 204 183 183 186 199 188 197 191 186 200 201 201 182 183 205 215 222 221 201
312 300 291 285 285 287 282 280 271 266 262 256 261 252 251 257 234 199 200 221 204 218 225 229 159 178 164 198 191 197 133 175 192 212 213 203 202 200 188 200 205 221 204
297 294 281 276 275 274 276 262 266 275 263 262 247 242 236 226 257 183 191 189 198 221 161 115 78 170 172 207 211 163 163 205 218 213 217 213 212 219 151 171 171 174 94
295 286 270 276 275 274 264 264 258 248 261 255 249 249 252 223 219 193 209 201 196 205 218 173 176 178 266 303 193 176 208 211 218 220 221 216 198 178 183 182 181 151 128
287 287 283 276 268 265 259 254 254 257 247 271 266 254 247 245 240 189 194 200 204 205 179 178 185 190 194 233 256 211 207 207 212 214 223 231 201 205 205 167 163 178 160
280 279 278 282 278 268 262 263 247 248 267 273 280 280 285 306 13 101 156 182 177 149 214 209 199 202 204 212 207 200 218 226 217 204 209 218 234 213 222 160 162 175 194
289 287 282 269 271 268 260 259 256 247 236 243 246 255 258 266 287 316 203 187 180 163 222 223 226 227 217 216 225 210 214 210 216 232 221 216 221 224 218 203 176 175 195
285 284 280 270 268 265 263 262 249 259 250 245 232 238 234 235 236 249 237 248 236 219 241 234 232 234 226 231 220 232 223 224 213 216 220 221 223 227 223 223 206 184 175
295 285 276 272 267 260 261 259 258 257 248 250 248 233 228 232 220 220 206 232 239 237 241 232 238 232 230 226 231 223 223 221 220 216 214 216 219 221 220 227 217 184 173
291 283 275 276 270 264 255 251 253 251 251 252 246 245 243 213 220 228 222 226 226 233 227 237 232 236 231 226 221 227 217 213 216 218 212 216 216 221 220 217 222 196 179
301 295 287 274 270 265 258 252 251 249 249 248 248 242 240 232 224 224 224 219 219 219 222 226 228 228 227 217 221 230 236 223 210 215 215 216 211 210 223 222 216 218 186
307 299 297 288 281 268 259 254 249 250 249 244 242 243 222 234 242 237 225 225 224 224 221 220 224 232 223 207 211 228 217 224 217 206 219 224 216 216 213 218 219 212 180
316 317 317 312 306 299 280 259 252 247 247 243 239 235 227 226 232 234 235 228 218 222 223 218 220 221 219 219 208 213 218 224 211 228 225 196 226 223 220 215 216 212 176
328 329 327 323 319 312 306 306 298 276 279 239 234 232 232 227 227 228 231 229 227 226 221 223 226 224 220 210 213 208 216 222 225 224 213 204 212 196 226 216 218 210 176
334 333 334 331 327 324 320 310 305 303 301 294 242 235 231 232 229 231 225 224 225 228 223 215 216 220 222 223 224 215 210 208 223 222 199 212 203 221 211 217 222 205 170
340 338 336 332 329 325 322 316 315 311 306 302 294 280 253 231 227 226 224 222 220 219 214 218 219 214 216 222 228 229 189 172 211 214 226 207 198 209 205 227 212 184 165